Dewpoint
46 37 26 21 16 22 20 21 24 41 46 51 52 50 50 52 48 40 62 63 67 68 70 70 70 70 70 69 69 69 69 69 69 68 68 67 67 66 64 63 63 63 61 60 62 61 59 59 58
45 32 20 19 14 14 17 23 33 44 49 50 50 50 48 46 54 60 62 65 68 69 69 69 70 70 70 69 69 69 69 69 69 68 67 66 65 64 63 63 62 62 60 61 61 60 59 59 58
27 25 17 16 16 12 17 22 20 49 49 49 48 53 50 48 59 61 63 67 68 68 68 69 70 70 70 69 69 69 69 69 68 67 66 65 63 62 62 63 62 61 60 61 61 61 60 58 58
20 12 16 15 14 17 18 17 19 35 47 48 48 46 53 56 59 64 66 68 67 68 68 70 70 70 70 69 69 69 69 68 68 67 66 64 63 62 61 62 62 60 58 61 60 60 59 58 58
11 7 9 13 14 16 16 12 12 12 26 49 46 45 49 52 61 65 67 67 66 67 68 70 70 70 69 69 69 69 68 68 67 66 65 64 63 62 63 62 61 60 58 59 60 59 58 57 56
4 3 -0 3 7 5 2 3 3 4 29 49 50 47 52 62 63 65 67 67 67 67 68 69 70 69 69 69 69 69 68 68 67 66 65 64 63 62 62 62 61 61 62 61 59 58 57 56 55
2 2 0 -1 1 -2 -3 -0 4 14 51 49 51 53 59 62 63 65 67 67 67 67 67 68 69 69 69 69 69 68 68 67 66 65 64 63 63 62 62 61 61 61 62 61 60 59 58 57 56
3 1 -2 -3 -3 -4 -3 -1 3 39 51 56 57 54 56 61 63 66 67 67 67 67 67 68 69 68 68 68 68 68 68 67 66 64 63 62 62 62 62 61 60 60 61 61 60 59 58 57 57
3 -1 -2 -3 -3 -3 -2 -2 1 44 55 59 59 57 59 62 65 65 65 65 66 66 67 68 68 67 67 67 68 67 67 66 65 64 62 60 61 61 61 61 61 61 61 61 60 58 58 58 57
1 -1 -2 -1 -1 -2 -1 -2 -1 45 56 58 60 61 62 63 63 61 62 62 65 65 67 67 66 66 65 66 66 66 66 65 64 62 60 59 60 60 60 61 61 60 60 60 60 59 58 56 55
3 0 -0 1 4 4 2 -0 0 34 39 58 58 60 62 62 61 61 61 62 63 65 66 67 65 65 64 65 65 65 65 64 62 61 60 60 59 60 60 60 60 59 59 58 56 55 53 53 52
10 9 10 9 8 4 3 -0 -2 22 30 58 61 61 61 60 60 60 60 62 63 64 65 65 65 64 64 64 64 64 63 63 61 61 60 59 59 59 58 57 57 56 55 53 52 52 52 51 51
11 13 15 13 8 7 5 -0 -1 -1 49 61 62 62 61 61 60 61 61 61 62 63 64 64 64 64 65 63 63 64 63 62 61 61 60 59 58 57 57 56 55 54 53 52 51 52 51 51 52
16 16 13 12 8 7 4 4 3 31 58 62 61 61 61 61 61 61 61 60 61 63 64 64 64 65 64 62 62 63 63 62 61 60 60 58 57 57 55 54 53 53 51 51 51 51 51 51 52
16 11 10 8 5 5 5 3 2 23 59 60 61 60 61 61 61 61 61 61 62 63 64 64 65 64 64 62 62 63 63 62 61 60 60 58 56 55 54 53 53 52 51 52 51 50 51 51 51
3 10 2 1 -3 0 5 3 5 6 10 55 59 60 61 61 61 62 61 61 62 62 63 63 64 64 64 62 63 63 63 62 61 61 60 58 57 55 53 53 53 53 52 53 50 50 50 50 51
-6 -5 -7 -6 -1 -3 0 5 2 1 6 10 25 57 59 61 62 62 62 62 62 62 62 62 62 63 63 63 63 62 63 63 62 62 60 58 57 56 53 53 54 55 53 52 49 49 49 49 50
-8 -8 -7 -7 -6 -2 -4 -2 -1 5 28 28 22 9 56 59 61 63 63 63 62 63 62 62 62 62 63 63 62 61 62 63 63 62 61 59 58 58 56 56 56 56 53 51 49 48 47 48 49
-6 -7 -7 -5 0 -1 -6 -3 0 33 32 29 30 31 23 57 60 61 63 63 63 63 63 62 62 62 62 61 61 60 61 62 62 62 61 60 58 59 59 58 57 55 52 50 48 47 45 45 44
0 1 2 -1 2 -1 -3 -4 27 34 33 30 27 28 33 30 58 60 61 63 64 64 62 63 62 61 61 61 61 60 61 62 62 62 62 61 59 59 59 58 57 53 50 50 48 46 44 43 42
5 11 9 6 6 -2 -1 -3 31 31 32 31 29 25 26 31 38 58 60 62 63 62 63 62 63 62 62 62 61 61 61 61 61 62 62 61 60 59 59 59 58 52 49 49 48 46 44 42 41
5 17 17 14 10 2 2 -8 27 26 26 31 29 27 24 26 32 41 54 61 62 63 63 63 63 62 62 63 61 60 59 59 60 61 61 61 61 60 59 59 58 53 50 49 49 47 44 41 39
13 20 19 17 13 6 2 -4 21 26 24 27 29 27 25 24 27 31 37 44 47 53 61 63 63 62 63 63 61 60 59 59 60 60 61 61 61 60 60 59 58 56 53 50 49 47 44 42 40
21 20 18 14 11 4 3 -3 19 23 25 26 28 28 26 24 25 28 30 35 38 43 48 54 61 61 62 62 62 60 59 58 59 59 59 60 61 61 60 59 59 58 56 54 51 48 45 43 42
22 18 7 2 5 2 9 13 19 25 28 28 28 28 26 26 24 25 27 29 32 35 39 44 51 54 61 61 61 61 60 59 58 58 59 59 59 60 61 60 59 58 57 56 54 51 47 45 43
22 22 13 6 4 9 14 15 17 25 30 30 30 29 25 26 24 25 26 27 29 31 34 38 42 46 50 53 59 61 61 60 59 58 59 59 59 59 60 61 60 59 58 57 56 53 50 47 45
18 20 26 20 19 15 16 21 24 20 23 24 25 27 25 26 25 24 25 26 28 29 31 34 36 40 43 47 50 52 55 60 60 59 58 59 60 60 59 60 61 60 59 58 57 56 53 51 49
20 22 21 19 11 8 14 12 12 18 22 22 23 25 26 26 26 24 25 25 27 28 30 32 33 35 39 41 44 47 49 51 56 60 60 59 60 60 60 59 60 61 60 59 58 57 56 54 53
17 18 19 25 21 14 11 9 22 21 24 21 23 26 27 27 27 26 25 26 27 28 29 31 31 34 36 37 39 43 46 47 50 56 60 59 60 61 60 60 59 59 60 60 58 58 57 56 55
15 16 22 18 15 16 13 10 21 21 22 23 22 25 27 28 28 27 26 26 27 27 28 29 30 33 34 35 37 38 41 44 45 49 52 60 59 59 61 61 60 60 60 60 59 58 58 57 56
Wind_Speed
15 19 5 5 1 3 1 2 2 4 7 3 8 5 5 5 6 5 18 25 23 21 20 18 19 22 24 24 24 24 24 25 26 26 25 26 26 25 21 21 20 21 21 23 23 25 25 26 26
15 8 4 4 1 2 3 3 5 8 11 16 11 6 6 2 3 6 16 26 29 23 19 19 21 22 23 24 24 25 25 25 25 25 25 26 25 24 20 21 21 21 23 22 22 25 25 26 25
4 3 3 3 3 6 4 5 9 10 24 10 8 2 5 3 4 11 15 28 28 24 19 19 23 21 23 23 23 24 24 23 23 24 24 26 25 23 22 21 21 21 22 20 22 26 26 26 24
5 5 6 1 11 6 2 11 8 3 12 6 13 6 2 8 19 10 21 24 32 24 17 21 22 23 23 23 23 24 24 23 22 24 25 24 24 24 22 23 22 22 21 22 24 24 26 25 24
6 5 3 1 9 3 5 12 11 12 6 7 15 12 5 1 5 30 32 24 27 23 20 19 21 25 23 23 24 24 24 24 22 23 24 22 23 23 22 23 22 20 20 23 24 25 25 24 24
4 4 3 7 11 4 10 7 11 17 10 13 9 16 5 6 27 21 25 27 22 24 24 21 21 24 24 22 22 23 24 24 22 22 23 22 22 21 22 22 21 21 21 23 24 24 25 25 25
4 4 5 4 6 5 3 18 8 16 18 16 19 11 4 14 22 24 23 22 25 22 21 22 20 20 22 23 22 22 21 23 22 22 22 20 21 19 21 23 20 21 20 24 24 24 23 23 23
5 4 4 4 2 5 5 18 11 9 5 13 7 10 12 16 24 22 24 23 22 24 21 20 20 19 19 20 21 22 22 23 23 21 21 19 20 17 20 20 20 20 21 24 23 22 23 21 22
3 2 6 4 4 4 8 14 9 7 8 4 4 7 16 30 26 26 26 20 22 21 22 19 20 20 20 19 21 23 24 22 23 21 20 18 14 13 14 17 19 18 21 24 26 24 21 20 21
2 4 8 4 2 11 18 9 14 5 5 7 13 23 30 28 28 29 26 28 26 24 19 22 22 21 21 19 20 19 20 17 16 16 15 12 13 13 13 16 17 16 21 23 23 23 21 15 12
0 3 3 2 2 9 11 16 8 5 2 7 20 23 27 29 27 28 28 27 29 28 22 21 22 21 21 19 18 15 14 14 13 13 11 12 12 11 12 13 13 11 14 13 15 14 13 14 12
2 2 5 8 12 8 10 9 6 1 3 10 21 31 29 28 28 28 30 29 28 26 23 21 22 23 21 18 16 15 14 13 13 11 13 13 12 12 12 14 14 12 12 15 15 14 14 14 13
2 7 11 11 7 9 9 7 5 4 2 19 19 22 26 24 23 22 20 25 25 27 26 25 24 23 21 20 16 14 14 15 15 14 11 11 12 13 12 14 13 13 11 14 12 12 16 15 14
7 8 11 6 7 5 6 7 5 3 10 20 25 26 26 27 25 22 22 23 26 25 22 20 23 22 22 21 19 16 15 17 16 14 13 12 11 13 13 14 14 13 12 8 7 16 17 14 15
5 7 6 21 18 8 16 6 2 4 13 23 24 22 25 26 26 30 30 30 29 25 22 22 22 21 23 22 20 16 16 16 16 15 15 16 14 15 15 14 15 14 10 7 11 12 13 15 11
8 6 5 10 22 11 13 3 7 25 24 10 18 17 22 24 28 26 27 27 25 22 25 23 22 22 23 22 21 17 17 17 17 14 14 14 15 15 15 15 15 13 11 9 13 15 14 14 15
13 4 7 12 11 15 12 6 27 26 17 20 20 14 18 19 21 23 26 27 28 27 26 26 25 25 24 20 20 17 16 18 16 14 15 14 14 15 15 15 15 14 12 11 14 11 17 16 14
5 3 3 5 10 16 10 7 21 20 23 24 24 23 16 21 23 23 24 25 26 25 25 25 23 26 26 21 20 16 16 17 16 15 16 17 16 16 15 13 15 15 14 14 12 17 10 13 17
2 3 4 6 12 14 10 10 16 20 34 33 33 33 23 18 20 21 21 22 23 22 23 27 27 27 24 21 21 18 22 18 18 16 18 20 18 18 17 12 14 15 16 17 17 11 15 9 9
8 5 7 4 9 8 18 14 16 23 26 27 31 35 35 30 17 20 22 22 25 27 28 25 26 25 24 22 20 13 18 16 20 18 18 20 20 19 17 13 14 14 13 15 17 17 9 6 16
5 7 6 5 11 2 14 4 11 17 26 26 33 31 34 35 27 14 24 26 27 29 29 28 26 26 22 17 14 11 13 10 14 18 19 20 21 19 18 15 15 16 14 16 15 15 19 11 16
3 6 6 10 8 6 5 6 11 22 26 30 31 33 34 37 36 32 16 18 25 28 29 32 27 29 27 21 21 24 24 21 18 19 17 17 17 18 17 16 17 17 15 15 15 14 13 12 18
2 5 8 8 6 3 4 2 12 11 23 29 28 29 32 31 30 32 26 24 23 24 5 19 27 27 24 30 26 25 23 17 12 15 16 14 14 15 16 16 16 17 16 17 17 15 14 13 15
10 7 8 3 3 4 7 6 13 13 18 26 28 27 29 31 31 28 27 24 28 26 25 20 15 19 21 23 27 26 25 20 18 15 15 15 15 16 17 15 16 16 17 18 18 19 19 19 14
21 7 6 2 1 7 5 8 6 13 15 16 24 26 25 26 27 28 31 30 27 27 25 23 20 16 12 17 19 20 17 16 22 22 17 17 15 15 17 18 17 16 16 17 18 20 20 20 19
7 3 1 4 3 5 7 8 5 7 11 13 16 20 24 25 24 24 25 25 24 24 25 24 21 20 17 17 3 8 9 12 12 13 15 18 18 19 17 20 18 19 19 19 18 16 18 18 21
6 2 4 4 2 4 3 5 12 20 17 19 24 25 25 24 24 23 23 22 22 22 22 22 22 20 20 17 13 14 12 8 12 11 11 14 14 15 19 20 21 18 18 20 19 19 20 17 20
2 9 1 2 4 5 5 4 11 25 26 25 26 25 24 24 23 22 22 22 21 20 18 18 19 18 17 17 14 9 8 10 11 10 11 14 14 14 18 20 21 20 19 19 20 19 18 20 19
9 6 5 5 3 4 2 1 8 15 17 18 20 20 21 22 21 21 20 20 19 18 20 17 17 17 17 17 16 14 12 9 7 11 11 15 14 14 16 19 21 22 20 20 21 22 21 21 23
9 11 6 6 1 3 3 3 10 14 17 13 20 21 21 17 19 20 19 19 19 19 18 18 17 14 14 15 16 16 14 11 8 6 9 8 14 14 16 16 17 19 21 20 21 23 22 24 24
Wind_Direction
330 333 307 35 29 61 249 233 141 110 101 180 106 147 178 101 181 180 165 153 139 153 154 156 150 139 131 128 125 122 120 118 117 115 113 107 102 99 102 105 104 106 107 105 101 102 99 97 93
330 337 30 83 97 203 235 245 121 141 133 107 96 109 105 213 243 102 131 145 144 150 155 154 149 141 133 130 127 126 123 121 119 117 113 109 104 105 106 106 107 110 111 105 108 102 102 99 96
318 0 63 94 131 207 207 218 75 145 157 132 122 359 136 160 18 143 136 144 142 150 156 157 146 141 134 131 129 126 123 121 120 119 116 110 113 112 112 110 113 115 110 104 107 105 105 105 103
13 22 52 151 238 243 227 304 337 126 234 118 133 151 201 319 153 146 138 141 140 147 155 154 147 142 138 136 132 128 125 124 124 120 117 118 117 116 117 114 112 114 116 114 111 112 111 108 105
41 59 95 224 266 253 289 295 294 287 254 193 146 155 157 256 107 147 146 148 144 146 150 153 149 141 141 139 135 131 131 128 129 125 121 120 119 121 117 114 113 115 123 120 116 115 113 110 109
62 79 107 224 250 307 292 285 297 272 235 161 130 148 129 156 134 152 144 146 146 148 149 153 150 141 141 139 135 134 135 131 131 127 124 123 120 123 120 116 116 114 114 119 119 117 116 113 111
119 106 186 219 265 302 275 336 318 296 175 176 148 133 109 137 145 147 141 143 145 147 151 150 149 142 139 138 138 136 136 131 129 128 126 124 120 124 123 121 120 116 117 124 122 122 118 117 116
104 97 155 233 250 262 301 341 331 37 160 112 122 165 165 162 149 138 135 141 146 147 154 150 147 144 140 141 140 136 134 132 129 129 126 126 123 129 128 125 125 118 118 129 130 123 121 116 116
111 118 211 238 182 276 324 343 9 339 113 47 347 158 141 145 138 139 141 143 149 153 152 153 147 149 146 150 146 141 137 133 131 131 133 133 127 134 127 130 126 123 119 124 127 127 123 117 114
155 178 213 221 305 316 314 317 335 45 5 35 66 98 126 138 145 151 157 156 157 160 157 153 151 155 154 154 152 150 142 139 137 141 146 142 131 137 137 134 130 130 129 120 127 128 122 112 109
25 233 219 318 331 333 308 304 316 133 225 207 160 144 142 148 156 160 165 170 165 160 157 154 154 158 158 156 155 153 148 145 144 140 142 136 140 145 139 131 131 132 129 120 119 121 117 117 117
280 31 37 329 330 335 325 308 285 0 298 177 170 154 152 161 163 169 170 170 168 167 161 158 161 161 165 159 159 156 153 148 150 148 149 145 144 151 149 139 142 144 141 131 123 130 129 123 123
210 341 341 329 328 306 301 294 313 265 148 134 150 156 163 167 171 174 171 172 172 169 167 169 168 167 165 163 162 164 157 159 159 157 160 157 156 161 156 149 149 154 156 147 141 145 141 134 128
320 317 331 337 6 302 316 295 359 314 142 143 159 174 175 173 175 169 174 180 180 177 170 171 170 167 167 167 167 168 165 163 164 167 170 166 161 164 161 158 158 166 170 163 133 145 144 142 139
323 338 8 21 346 32 347 310 223 308 170 166 183 180 181 184 180 182 180 184 183 181 171 170 166 168 171 175 173 170 170 167 170 176 177 173 167 168 163 165 169 177 171 155 134 133 132 138 142
16 55 360 356 21 356 7 233 9 358 347 236 192 191 189 190 191 188 185 184 183 177 178 171 171 174 173 176 176 173 172 169 177 179 183 180 172 171 164 168 180 186 172 169 149 146 141 150 153
25 53 16 336 26 354 37 332 331 336 345 338 309 233 197 196 193 190 186 182 183 183 178 178 176 176 176 176 173 169 170 175 180 179 182 184 183 179 174 178 186 184 184 175 159 155 154 159 160
354 1 342 345 335 344 338 341 330 350 19 1 351 305 245 199 193 192 191 185 185 183 184 179 177 180 180 175 175 168 170 181 178 183 187 182 188 186 183 188 189 184 187 176 173 160 150 164 164
32 7 332 306 349 341 312 344 347 31 28 20 13 9 303 238 203 190 187 191 183 179 180 185 183 184 178 176 178 175 181 183 185 188 189 186 191 191 189 193 193 186 185 183 177 156 155 152 144
54 33 0 309 346 327 334 328 83 46 37 23 17 15 359 338 244 192 182 185 186 188 188 187 187 185 185 179 183 178 185 196 192 189 190 190 193 192 191 191 193 188 188 184 182 167 159 147 170
70 29 351 328 332 351 4 5 40 24 28 19 18 13 8 3 349 240 187 184 188 193 190 191 188 187 180 176 164 172 181 180 193 194 193 196 191 192 193 186 185 187 186 189 193 181 176 170 196
283 340 346 334 359 314 24 286 32 13 11 16 10 7 4 3 3 8 348 206 187 191 190 190 188 183 178 169 168 192 193 199 203 195 194 189 192 189 193 185 185 184 183 188 195 195 187 172 190
283 342 330 283 270 297 269 224 357 9 1 2 360 0 1 1 2 9 358 28 27 20 272 201 184 183 184 178 195 200 196 194 171 184 187 178 177 186 196 195 186 188 186 187 190 198 195 198 190
355 334 334 48 142 239 248 202 34 17 359 349 354 354 357 355 358 3 1 11 28 20 22 18 184 187 183 186 186 195 185 174 165 166 174 176 185 192 199 195 194 190 192 194 197 197 197 199 207
6 16 337 338 180 239 12 71 40 7 6 356 349 348 353 352 355 358 2 6 14 17 17 25 33 38 185 188 190 197 208 191 182 183 179 180 189 198 199 195 200 199 197 198 197 199 202 203 209
319 34 343 298 273 292 323 155 146 36 11 0 350 347 351 353 351 358 0 1 6 9 15 19 24 30 33 49 296 212 221 207 209 197 184 190 195 201 193 198 206 208 199 200 199 206 212 209 209
339 45 337 263 263 266 185 67 230 4 2 359 358 352 351 351 346 353 358 359 1 5 10 14 14 18 22 21 41 44 18 233 217 209 206 204 197 193 192 198 207 209 205 203 202 209 216 211 214
305 321 314 230 249 245 108 73 334 345 344 355 354 345 342 344 346 349 356 357 360 1 1 11 12 11 11 7 3 20 25 25 353 226 213 219 220 202 190 199 207 211 209 205 205 216 219 214 222
353 356 298 270 247 268 199 131 356 339 337 347 350 335 335 337 344 347 351 355 354 358 360 2 5 5 6 356 350 355 346 6 12 350 227 211 219 217 208 203 207 213 215 212 209 215 220 219 226
19 344 276 280 241 18 115 186 358 347 333 346 350 338 333 333 344 344 350 353 355 355 354 354 355 359 358 350 343 342 331 336 346 350 349 270 218 215 224 218 214 214 216 220 215 220 221 222 228